Weather History for Lorain / Elyria, OH

Change the Weather History Date:

Saturday, September 22, 2012

  Actual Average (KCLE) Record (KCLE)
Temperature  
Mean Temperature 54 °F 63 °F  
Max Temperature 64 °F 72 °F 92 °F (1895)
Min Temperature 45 °F 54 °F 36 °F (1904)
Degree Days  
Heating Degree Days 10 4  
Month to date heating degree days 45  
Since 1 July heating degree days 57  
Cooling Degree Days 0 2  
Month to date cooling degree days 77  
Year to date cooling degree days 792  
Growing Degree Days 4 (Base 50)    
Moisture  
Dew Point 49 °F    
Average Humidity 87    
Maximum Humidity 94    
Minimum Humidity 52    
Precipitation  
Precipitation 0.65 in 0.13 in 1.38 in (1951)
Month to date precipitation 2.80  
Year to date precipitation 28.34  
Snow  
Snow 0.00 in 0.00 in - ()
Month to date snowfall 0.0  
Since 1 July snowfall 0.0  
Since 1 September snowfall 0.0  
Snow Depth -    
Sea Level Pressure  
Sea Level Pressure 29.85 in    
Wind  
Wind Speed 6 mph (WNW)    
Max Wind Speed 16 mph    
Max Gust Speed 32 mph    
Visibility 8 miles    
Events Rain , Thunderstorm    
T = Trace of Precipitation, MM = Missing Value Source: NWS Daily Summary

Daily Weather History Graph

Daily Weather History Graph

Search for Another Location

Airport:

Trip Planner

Search our weather history database for the weather conditions in past years. The results will help you decide how hot, cold, wet, or windy it might be!

Date:

Astronomy

Sep. 22, 2012 Rise Set
Actual Time 7:16 AM EDT 7:25 PM EDT
Civil Twilight 6:49 AM EDT 7:52 PM EDT
Nautical Twilight 6:16 AM EDT 8:24 PM EDT
Astronomical Twilight 5:43 AM EDT 8:57 PM EDT
Moon 2:37 PM EDT (9/22) No Moon Set
Length of Visible Light 13h 03m
Length of Day
12h 08m
Waxing Crescent, 48% of the Moon is Illuminated
Sep 22
Waxing Crescent
Sep 22
First Quarter
Sep 29
Full
Oct 8
Last Quarter
Oct 15
New

Hourly Weather History & Observations

Time (EDT) Temp. Windchill Dew Point Humidity Pressure Visibility Wind Dir Wind Speed Gust Speed Precip Events Conditions
12:53 AM 53.1 °F - 51.1 °F 93% 29.75 in 9.0 mi Calm Calm - 0.08 in Rain Light Rain
1:43 AM 53.6 °F - 51.8 °F 94% 29.73 in 8.0 mi SE 4.6 mph - 0.05 in Rain Light Rain
1:53 AM 53.1 °F - 51.1 °F 93% 29.73 in 9.0 mi South 4.6 mph - 0.06 in Rain Light Rain
2:24 AM 53.6 °F - 51.8 °F 94% 29.73 in 10.0 mi South 4.6 mph - 0.01 in Rain Light Rain
2:53 AM 53.1 °F - 51.1 °F 93% 29.73 in 10.0 mi SSW 3.5 mph - 0.02 in Rain Light Rain
3:08 AM 53.6 °F - 51.8 °F 94% 29.74 in 10.0 mi WNW 3.5 mph - 0.00 in Rain Light Rain
3:17 AM 53.6 °F - 51.8 °F 94% 29.74 in 10.0 mi Calm Calm - 0.00 in Rain Light Rain
3:53 AM 53.1 °F - 51.1 °F 93% 29.75 in 10.0 mi West 6.9 mph - 0.00 in   Overcast
4:04 AM 53.6 °F - 51.8 °F 94% 29.76 in 10.0 mi West 5.8 mph - N/A   Overcast
4:35 AM 53.6 °F - 51.8 °F 94% 29.76 in 10.0 mi West 4.6 mph - N/A   Overcast
4:53 AM 53.1 °F - 51.1 °F 93% 29.75 in 10.0 mi WSW 5.8 mph - N/A   Overcast
5:32 AM 53.6 °F - 51.8 °F 94% 29.76 in 7.0 mi West 5.8 mph - N/A   Overcast
5:43 AM 53.6 °F - 51.8 °F 94% 29.76 in 6.0 mi West 5.8 mph - N/A   Overcast
5:53 AM 53.1 °F - 51.1 °F 93% 29.76 in 6.0 mi West 4.6 mph - N/A   Overcast
6:35 AM 53.6 °F - 51.8 °F 94% 29.78 in 5.0 mi WSW 4.6 mph - N/A   Overcast
6:42 AM 53.6 °F - 51.8 °F 94% 29.78 in 6.0 mi WSW 4.6 mph - N/A   Overcast
6:53 AM 53.1 °F - 51.1 °F 93% 29.79 in 9.0 mi WSW 6.9 mph - N/A   Overcast
7:53 AM 53.1 °F - 51.1 °F 93% 29.81 in 10.0 mi SW 4.6 mph - N/A   Overcast
8:05 AM 53.6 °F - 51.8 °F 94% 29.81 in 10.0 mi SW 5.8 mph - N/A   Overcast
8:21 AM 53.6 °F - 51.8 °F 94% 29.81 in 10.0 mi WSW 6.9 mph - N/A   Overcast
8:53 AM 54.0 °F - 51.1 °F 90% 29.83 in 10.0 mi West 10.4 mph - N/A   Overcast
9:50 AM 55.4 °F - 51.8 °F 88% 29.84 in 10.0 mi West 11.5 mph 18.4 mph 0.01 in   Overcast
9:53 AM 55.9 °F - 51.1 °F 84% 29.85 in 10.0 mi WNW 16.1 mph 23.0 mph 0.01 in   Mostly Cloudy
10:23 AM 55.4 °F - 50.0 °F 82% 29.85 in 10.0 mi WNW 10.4 mph 19.6 mph N/A   Mostly Cloudy
10:38 AM 57.2 °F - 51.8 °F 82% 29.85 in 10.0 mi WNW 9.2 mph - N/A   Scattered Clouds
10:53 AM 59.0 °F - 51.1 °F 75% 29.85 in 10.0 mi WNW 9.2 mph 16.1 mph N/A   Partly Cloudy
11:53 AM 60.1 °F - 48.9 °F 67% 29.86 in 10.0 mi WNW 11.5 mph - N/A   Mostly Cloudy
12:07 PM 60.8 °F - 48.2 °F 63% 29.86 in 10.0 mi WNW 11.5 mph - N/A   Mostly Cloudy
12:53 PM 61.0 °F - 48.0 °F 62% 29.87 in 10.0 mi WNW 9.2 mph - N/A   Mostly Cloudy
2:53 PM 63.0 °F - 45.0 °F 52% 29.81 in 10.0 mi WSW 9.2 mph - N/A   Mostly Cloudy
3:17 PM 60.8 °F - 46.4 °F 59% 29.83 in 10.0 mi NNW 16.1 mph 32.2 mph N/A Thunderstorm Thunderstorm
3:31 PM 51.8 °F - 48.2 °F 88% 29.86 in 2.5 mi NNW 12.7 mph 29.9 mph 0.06 in Rain , Thunderstorm Rain
3:38 PM 51.8 °F - 48.2 °F 88% 29.88 in 3.0 mi NNW 11.5 mph 21.9 mph 0.12 in Rain , Thunderstorm Heavy Thunderstorms and Rain
3:53 PM 53.1 °F - 50.0 °F 89% 29.85 in 5.0 mi North 11.5 mph 21.9 mph 0.17 in Rain , Thunderstorm Light Thunderstorms and Rain
4:00 PM 53.6 °F - 48.2 °F 82% 29.85 in 10.0 mi NNE 9.2 mph - 0.00 in Rain Light Rain
4:13 PM 53.6 °F - 48.2 °F 82% 29.86 in 10.0 mi North 8.1 mph - 0.00 in Rain , Thunderstorm Light Thunderstorms and Rain
4:24 PM 51.8 °F - 48.2 °F 88% 29.88 in 1.8 mi NW 4.6 mph - 0.09 in Rain , Thunderstorm Heavy Thunderstorms and Rain
4:32 PM 51.8 °F - 48.2 °F 88% 29.88 in 1.8 mi Variable 3.5 mph - 0.13 in Rain , Thunderstorm Thunderstorms and Rain
4:37 PM 51.8 °F - 48.2 °F 88% 29.89 in 3.0 mi NNW 6.9 mph - 0.14 in Rain , Thunderstorm Thunderstorms and Rain
4:41 PM 51.8 °F - 48.2 °F 88% 29.90 in 4.0 mi NNW 11.5 mph - 0.15 in Rain Light Rain
4:53 PM 51.1 °F - 48.0 °F 89% 29.93 in 3.0 mi NW 10.4 mph - 0.18 in Rain Rain
5:08 PM 51.8 °F - 48.2 °F 88% 29.92 in 2.5 mi NW 11.5 mph - 0.07 in Rain Heavy Rain
5:13 PM 51.8 °F - 48.2 °F 88% 29.92 in 2.5 mi NNW 9.2 mph - 0.09 in Rain Heavy Rain
5:22 PM 51.8 °F - 48.2 °F 88% 29.93 in 5.0 mi NW 6.9 mph 17.3 mph 0.11 in Rain Rain
5:53 PM 51.1 °F - 48.0 °F 89% 29.94 in 10.0 mi NW 9.2 mph - 0.12 in   Overcast
6:53 PM 51.1 °F - 48.0 °F 89% 29.98 in 10.0 mi West 8.1 mph - 0.01 in   Overcast
7:53 PM 48.9 °F - 46.0 °F 90% 30.02 in 10.0 mi West 10.4 mph 18.4 mph N/A   Mostly Cloudy
8:53 PM 46.9 °F - 43.0 °F 86% 30.05 in 10.0 mi West 11.5 mph - N/A   Clear
9:53 PM 46.0 °F 39.9 °F 43.0 °F 89% 30.08 in 10.0 mi West 13.8 mph - N/A   Clear
10:53 PM 46.0 °F 41.4 °F 42.1 °F 86% 30.09 in 10.0 mi West 9.2 mph - N/A   Clear
11:53 PM 45.0 °F 40.6 °F 42.1 °F 90% 30.10 in 10.0 mi West 8.1 mph - N/A   Clear